Hourly Data Report for October 23, 2015

All times are specified in Local Standard Time (LST). Add 1 hour to adjust for Daylight Saving Time where and when it is observed.

PENTICTON A
BRITISH COLUMBIA

49°27'45.000" N
119°36'08.000" W
344.40 m
1126146
71889
YYF

Download Data

Hourly Data (October 2015)
Hourly Data Report for October 23, 2015
Temp Definition
°C
Dew Point Temp Definition
°C
Rel Hum Definition
%
Wind Dir Definition
10's deg

Wind Spd Definition
km/h
Visibility Definition
km
Stn Press Definition
kPa
Hmdx Definition


Wind Chill Definition


Weather Definition


TIME
00:00 Legend Double Dagger 3.9 -1.7 67 6 4 24.1 98.23     LegendNANA
01:00 Legend Double Dagger 0.9 -2.3 79 33 4 24.1 98.22     Clear
02:00 Legend Double Dagger 1.3 -0.8 86 8 5 24.1 98.20     LegendNANA
03:00 Legend Double Dagger 1.7 -0.9 83 6 5 24.1 98.24     LegendNANA
04:00 Legend Double Dagger -0.6 -3.0 84 36 1 24.1 98.22   -1 Clear
05:00 Legend Double Dagger -0.1 -2.5 84 36 1 24.1 98.22   0 LegendNANA
06:00 Legend Double Dagger 0.6 -2.0 83 36 5 24.1 98.21     LegendNANA
07:00 Legend Double Dagger 1.2 -1.5 82 1 6 24.1 98.22     Mostly Cloudy
08:00 Legend Double Dagger 3.1 -0.4 78 34 4 24.1 98.25     LegendNANA
09:00 Legend Double Dagger 7.9 2.0 66 32 5 24.1 98.23     LegendNANA
10:00 Legend Double Dagger 9.4 0.9 55 14 3 24.1 98.17     Mainly Clear
11:00 Legend Double Dagger 11.1 1.1 50 26 4 24.1 98.10     LegendNANA
12:00 Legend Double Dagger 12.0 -0.1 43 17 6 24.1 98.00     LegendNANA
13:00 Legend Double Dagger 12.7 1.1 45 34 5 24.1 97.88     Mostly Cloudy
14:00 Legend Double Dagger 13.2 1.0 43 2 7 24.1 97.83     LegendNANA
15:00 Legend Double Dagger 13.1 1.5 45 36 15 24.1 97.77     LegendNANA
16:00 Legend Double Dagger 11.7 2.5 53 34 9 24.1 97.75     Mainly Clear
17:00 Legend Double Dagger 8.0 1.0 61 2 11 24.1 97.75     LegendNANA
18:00 Legend Double Dagger 5.2 0.0 69 32 4 24.1 97.77     LegendNANA
19:00 Legend Double Dagger 6.3 -0.2 63 7 5 24.1 97.81     Mainly Clear
20:00 Legend Double Dagger 5.1 -0.7 66 36 3 24.1 97.82     LegendNANA
21:00 Legend Double Dagger 3.3 -0.7 75 36 3 24.1 97.86     LegendNANA
22:00 Legend Double Dagger 2.2 -1.6 76 3 5 24.1 97.89     Clear
23:00 Legend Double Dagger 1.1 -1.5 83 36 3 24.1 97.91     LegendNANA

Notes on Data Quality.

Legend

  • E = Estimated
  • M = Missing
  • NA = Not Available
  • ‡ = Partner data that is not subject to review by the National Climate Archives
Date modified: